Regional Weather Roundup
Issued by NWS Grand Forks, ND

Home | Current Version | Previous Version | Graphics & Text | Print | Product List | Glossary On
Versions: 1 2 3 4 5 6 7 8 9 10 11 12 13 14 15 16 17 18 19 20 21 22 23 24 25 26 27 28 29 30 31 32 33 34 35 36 37 38 39 40 41 42 43 44 45 46 47 48 49 50
000
ASUS43 KFGF 272010
RWRFGF
PRAIRIE TO PINES  WEATHER ROUNDUP
NATIONAL WEATHER SERVICE EASTERN NORTH DAKOTA/GRAND FORKS ND
300 PM CDT MON APR 27 2015

 **SATELLITE DATA USED TO AUGMENT SKY COVER AT AUTOMATED STATIONS**
 *****  WEATHER ACROSS EASTERN NORTH DAKOTA  *****

CITY           SKY/WX    TMP DP  RH WIND       PRES   REMARKS
GRAND FORKS    CLOUDY    67  41  38 VRB6      30.18F
GRAND FRKS AFB CLOUDY    67  43  41 NE8       30.18F
GRAND FRKS NWS   N/A     68 N/A N/A N5          N/A
DEVILS LAKE    CLOUDY    52  39  62 N14       30.26R
FARGO          MOSUNNY   71  24  17 VRB5      30.17F
WAHPETON ARPT  CLEAR     70  18  13 E6        30.19F
$$

 ***** WEATHER ACROSS CENTRAL AND WESTERN NORTH DAKOTA  *****

CITY           SKY/WX    TMP DP  RH WIND       PRES   REMARKS
BISMARCK       CLOUDY    50  40  68 N12       30.31R
MINOT          CLOUDY    48  41  76 NW7       30.29S
JAMESTOWN      PTSUNNY   66  39  37 NW15      30.19S
MINOT AFB      CLOUDY    48  47  99 NW12      30.28S
GARRISON         N/A     48  42  80 NW7       30.29S
WILLISTON      PTSUNNY   54  41  61 VRB6      30.30F
DICKINSON      CLOUDY    46  38  73 NW8       30.29S
HETTINGER      CLOUDY    46  39  76 NW7       30.32F
$$

 *****  OTHER AIRPORT OBSERVATIONS IN OUR AREA  *****

CITY           SKY/WX    TMP DP  RH WIND       PRES   REMARKS
WALHALLA       FAIR      52  41  66 NW14      30.25S
GRAFTON AIRPOR FAIR      61  43  51 N8G17     30.21F
VALLEY CITY AR FAIR      68  34  28 NW10      30.18S
CANDO          CLOUDY    48  43  81 NW10      30.28R
CAVALIER APRT  FAIR      54  41  62 N13       30.24S
GWINNER        CLEAR     72  30  21 S9        30.19F
SHEYENNE NWR     N/A     71  23  16 W7        29.95S
ROLLA          NOT AVBL
 ***** THE ABOVE OBSERVATIONS ARE NON NWS ARE NOT QUALITY
       CONTROLLED AND MAY MIS-REPORT RAIN FOR SNOW...
$$

  *****  WEATHER ACROSS NORTHERN MINNESOTA  *****

CITY           SKY/WX    TMP DP  RH WIND       PRES   REMARKS
FLAG ISLAND    PTSUNNY   57  30  35 CALM      30.16F
WARROAD        MOSUNNY   66  36  32 CALM      30.17S
ROSEAU         MOSUNNY   68  36  30 W10G17    30.18S
HALLOCK        PTSUNNY   61  39  44 N12       30.21R
THF RVR FALLS  MOSUNNY   68  30  24 NW7       30.18F
BAUDETTE       MOSUNNY   70  28  21 N8        30.16F
WASKISH        MOSUNNY   68  32  26 SW7       30.17F
CROOKSTON      PTSUNNY   70  34  26 NW12G17   30.18S
$$
  *****  WEATHER ACROSS CENTRAL AND WEST MINNESOTA  *****

CITY           SKY/WX    TMP DP  RH WIND       PRES   REMARKS
FOSSTON        MOSUNNY   72  23  16 NW5       30.18F
BEMIDJI        SUNNY     69  29  21 SW8       30.17F
PARK RAPIDS    SUNNY     71  22  15 CALM      30.16F
ELBOW LAKE     FAIR      66  22  19 W6        30.19F
WADENA         SUNNY     66  28  24 N5        30.18F
DETROIT LAKES  MOSUNNY   68  27  21 W10       30.20S
MOORHEAD       MOSUNNY   68  23  18 E3        30.19S
FERGUS FALLS   SUNNY     66  14  13 CALM      30.20S
MORRIS MN      SUNNY     70  21  16 NW7       30.19F
STAPLES        SUNNY     70  21  16 N10       30.17F
$$
  *****  WEATHER ELSEWHERE ACROSS MINNESOTA  *****

CITY           SKY/WX    TMP DP  RH WIND       PRES   REMARKS
DULUTH         SUNNY     67  25  20 NW6       30.17F
INTRNTL FALLS  MOSUNNY   67  26  21 VRB3      30.17F
ELY            SUNNY     63  21  20 W9        30.17F
CLOQUET        SUNNY     66  18  15 N5        30.17F
WHEATON        SUNNY     66  27  22 SW7       30.21S
BRAINERD       SUNNY     67  22  18 VRB3      30.17F
HIBBING        SUNNY     67  20  16 VRB6      30.17F
ALEXANDRIA     SUNNY     66  22  18 N6        30.20F
SAINT CLOUD    SUNNY     68  22  17 NE7       30.18F
MINNEAPOLIS    SUNNY     66  27  23 N6        30.18F
$$

  *****  WEATHER ACROSS SOUTH DAKOTA  *****

CITY           SKY/WX    TMP DP  RH WIND       PRES   REMARKS
SIOUX FALLS    PTSUNNY   67  29  24 S5        30.18F
BROOKINGS      SUNNY     64  21  19 CALM      30.21S
WATERTOWN      SUNNY     66  22  18 S7        30.20
HURON          SUNNY     70  20  15 E5        30.19F
SISSETON         N/A     70  20  15 VRB6      30.19S
ABERDEEN       SUNNY     71  23  16 CALM      30.19F
MITCHELL       SUNNY     68  27  21 VRB5      30.20F
PIERRE         SUNNY     70  33  25 N9        30.20S
MOBRIDGE       MOSUNNY   59  45  59 NW21      30.23R
RAPID CITY     LGT RAIN  45  39  79 N20       30.32R
$$

  *****  SOME WEATHER IN NEARBY STATES *****

CITY           SKY/WX    TMP DP  RH WIND       PRES   REMARKS
GLASGOW MT     SUNNY     56  35  45 SW8       30.29F
GREAT FALLS MT SUNNY     56  27  32 S10G21    30.23F
CHEYENNE WY    CLOUDY    41  37  86 E8        30.28S
SCOTTSBLUFF NE PTSUNNY   57  42  57 N7        30.27F
OMAHA NE       MOSUNNY   68  29  23 E16       30.15F
DES MOINES IA  MOSUNNY   67  30  25 E10G18    30.14F
DAVENPORT IA   SUNNY     64  34  32 N9G18     30.13F
CHICAGO IL     MOSUNNY   53  34  48 NE13      30.12R
EAU CLAIRE WI  SUNNY     68  29  23 N12       30.14F
LA CROSSE WI   SUNNY     67  33  28 NW10      30.14F
$$

  *****  SOME NATIONAL WEATHER *****

CITY           SKY/WX    TMP DP  RH WIND       PRES   REMARKS
LA GUARDIA NY  CLOUDY    58  32  37 NW16      29.63F
RALEIGH NC     MOSUNNY   66  36  32 W8G17     29.79S
ATLANTA GA     CLOUDY    69  38  32 NW12      29.86F
NEW ORLEANS LA CLOUDY    72  64  76 SE12      29.66F
OKLAHOMA CITY  TSTM      52  48  87 NE9G21    29.91R FOG
ALBUQUERQUE NM CLOUDY    59  35  40 N12G18    30.05S
SALT LAKE CITY MOSUNNY   57  38  48 W9        30.22F
LOS ANGELES CA SUNNY     70  55  59 W13       29.95S
BOISE ID       SUNNY     63  25  23 VRB7      30.28F
SEATTLE WA     PTSUNNY   69  53  56 VRB6      30.17F
$$

*** WEATHER ACROSS MANITOBA...SASKATCHEWAN AND ONTARIO ***
                ***ONTARIO***

CITY           SKY/WX    TMP DP  RH WIND       PRES   REMARKS
GERALDTON      MOSUNNY   55  34  44 NE8       30.16F
THUNDER BAY    MOSUNNY   61  28  29 E10       30.16S
SIOUX LOOKOUT  PTSUNNY   63  25  23 VRB3      30.18F
TORONTO        PTSUNNY   52  37  58 N12G18    29.90F
BIG TROUT LK   SUNNY     55  28  35 SE7       30.15F
PICKLE LAKE    PTSUNNY   59  23  25 NE3       30.16F
DRYDEN         MOSUNNY   64  27  24 VRB6      30.16F
KENORA         CLOUDY    63  36  36 NW6       30.18F
$$
                *** MANITOBA***

CITY           SKY/WX    TMP DP  RH WIND       PRES   REMARKS
BRANDON        CLOUDY    50  39  66 W9G17     30.27S
DAUPHIN        SUNNY     55  36  47 W8        30.24F
ISLAND LAKE    CLOUDY    43  36  75 W9        30.14S
PILOT MOUND      N/A     46  43  87 NW10        N/A
THE PAS        CLOUDY    43  36  75 NW10      30.25R
THOMPSON       NOT AVBL
WINNIPEG       CLOUDY    45  41  87 NW13      30.27R
LYNN LAKE      CLOUDY    36  34  93 NW7       30.19S
CHURCHILL      LGT SNOW  28  27  93 E14       30.23S WCI  17
GILLAM         CLOUDY    45  32  61 CALM      30.07F
$$
                ***SASKATCHEWAN***

CITY           SKY/WX    TMP DP  RH WIND       PRES   REMARKS
ESTEVAN        MOSUNNY   57  36  44 VRB10     30.28S
KINDERSLEY     PTSUNNY   64  28  25 S15       30.17F
LLOYDMINSTER   PTSUNNY   63  32  31 S13G22    30.11F
PRINCE ALBERT  MOSUNNY   50  39  66 S5        30.24F
REGINA         MOSUNNY   57  32  38 NW2       30.27F
YORKTON        SUNNY     55  25  30 NW15      30.26S
N. BATTLEFORD  SUNNY     63  28  27 S14G22    30.18F
LA RONGE       MOSUNNY   45  36  70 NE9       30.21F
SASKATOON      MOSUNNY   52  37  58 S6        30.25F
SWIFT CURRENT  SUNNY     59  28  31 SW7G22    30.21S
$$
NOTE: THESE ARE AUTOMATED STATIONS WITH LIMITED QUALITY CONTROL
      "FAIR" INDICATES FEW OR NO CLOUDS BELOW 12,000 FEET WITH NO
      SIGNIFICANT WEATHER AND/OR OBSTRUCTIONS TO VISIBILITY.
      SKY/WX - SKY CONDITION AND SIGNIFICANT WEATHER.
      TMP - AIR TEMPERATURE.    DP   - DEWPOINT TEMPERATURE.
      RH  - RELATIVE HUMIDITY.  PRES - PRESSURE.
      HX  - HEAT INDEX.         WCI  - WIND CHILL INDEX.
$


USA.gov is the U.S. government's official web portal to all federal, state and local government web resources and services.